Regional Weather Roundup
Issued by NWS

Home | Current Version | Previous Version | Graphics & Text | Print | Product List | Glossary On
Versions: 1 2 3 4 5 6 7 8 9 10 11 12 13 14 15 16 17 18 19 20 21 22 23 24 25 26 27
000
ASUS43 KDMX 240807
RWRIA

WEATHER ROUNDUP FOR IOWA
NATIONAL WEATHER SERVICE DES MOINES IA
300 AM CDT THU APR 24 2014

NOTE: "FAIR" INDICATES FEW OR NO CLOUDS BELOW 12,000 FEET WITH NO
SIGNIFICANT WEATHER AND/OR OBSTRUCTIONS TO VISIBILITY.

* - THESE STATIONS ARE NOT NWS STATIONS...THUS NOT UNDER NWS
QUALITY CONTROL.  THEY ALSO DO NOT REPORT WEATHER SUCH
AS PRECIPITATION OR FOG.

IAZ001>003-012>014-020>022-031>034-043>046-240900-
   NORTHWEST IOWA

CITY           SKY/WX    TMP DP  RH WIND       PRES   REMARKS
CARROLL *      CLOUDY    46  43  87 N8        29.70R
CHEROKEE *     LGT RAIN  46  45  93 SE17G29   29.64F
DENISON *      CLOUDY    46  43  87 NE13G23   29.65F
LE MARS *        N/A     50  48  93 E3        29.66F FOG
ORANGE CITY *  RAIN      50  45  81 S6        29.67F
SHELDON *      CLOUDY    48  46  93 SW5       29.69R
SIOUX CITY     LGT RAIN  50  47  89 CALM      29.65F
SPENCER        LGT RAIN  47  44  90 SE30G36   29.66F
STORM LAKE *   CLOUDY    45  43  93 E17G26    29.68F
$$

IAZ055>058-069>071-079>083-090>094-240900-
   SOUTHWEST IOWA

CITY           SKY/WX    TMP DP  RH WIND       PRES   REMARKS
ATLANTIC *     CLOUDY    54  41  62 CALM      29.63S
AUDUBON *      CLOUDY    52  39  62 CALM      29.67R
CLARINDA *     CLEAR     57  43  58 SE5       29.63F
COUNCIL BLFS * MOCLDY    50  48  93 NE8       29.60F
CRESTON *      MOCLDY    54  41  62 SE14      29.68S
HARLAN  *      CLOUDY    50  45  81 NE7       29.67F
LAMONI         CLOUDY    58  38  47 SE20G26   29.65F
RED OAK *      CLOUDY    57  43  58 SE8G14    29.61F
SHENANDOAH *   MOCLDY    59  43  55 SE15      29.61S
$$

IAZ047>049-059>061-072>074-084-240900-
   CENTRAL IOWA

CITY           SKY/WX    TMP DP  RH WIND       PRES   REMARKS
AMES           CLOUDY    47  39  74 SE14G22   29.72F
ANKENY *       LGT RAIN  48  41  76 SE12      29.73S
CHARITON *     CLOUDY    54  37  54 SE18G25   29.69F
DES MOINES     LGT RAIN  53  38  56 SE12      29.73S
GRINNELL*      CLOUDY    46  37  71 E14       29.78F
KNOXVILLE *    MOCLDY    54  36  50 SE14G23   29.71F
MARSHALLTOWN   LGT RAIN  45  41  86 E16       29.79F
NEWTON *       CLOUDY    48  37  66 E16G22    29.76F
PELLA *        CLOUDY    50  37  62 SE14      29.75F
PERRY *        CLOUDY    50  41  71 SE17      29.67F
$$

IAZ004>006-015-016-023>025-035-036-240900-
   NORTH CENTRAL IOWA

CITY           SKY/WX    TMP DP  RH WIND       PRES   REMARKS
ALGONA *       RAIN      45  43  93 S13G22    29.79R
CLARION *      CLOUDY    45  41  87 E24G32    29.71F
ESTHERVILLE    RAIN      43  43 100 SE24      29.71F FOG
FORT DODGE *   CLOUDY    45  39  81 NW13G24   29.76R
MASON CITY     LGT RAIN  43  41  93 SE23G31   29.78F FOG
FOREST CITY *  HVY RAIN  43  41  93 SE15G26   29.77F
IOWA FALLS *   LGT RAIN  45  41  87 E22G31    29.75F
$$

IAZ007>011-017>019-026>030-037>042-050>054-066-240900-
   NORTHEAST IOWA

CITY           SKY/WX    TMP DP  RH WIND       PRES   REMARKS
CEDAR RAPIDS   CLOUDY    46  39  76 E18G24    29.84F
CHARLES CITY * MIX PCPN  45  39  81 E21G33    29.84F
CLINTON *      CLOUDY    43  34  70 E16G22    29.99S
DECORAH *      CLOUDY    41  37  87 SE15G24   29.88F
DUBUQUE        CLOUDY    43  31  62 E17       29.94F
MONTICELLO *   CLOUDY    45  36  70 E13G21    29.91F
OELWEIN *      CLOUDY   N/A N/A N/A E22G33    29.86F
WATERLOO       LGT RAIN  44  39  82 SE21      29.83F
$$

IAZ064-065-067-068-078-240900-
   EAST CENTRAL IOWA

CITY           SKY/WX    TMP DP  RH WIND       PRES   REMARKS
DAVENPORT      CLOUDY    45  36  70 E16       29.94F
IOWA CITY      CLOUDY    48  39  71 E8G18     29.87F
MT. PLEASANT * CLOUDY    50  34  53 E12       29.85F
MUSCATINE *    CLEAR     50  39  66 E17       29.89F
QUAD CITIES    CLOUDY    45  37  73 E16       29.94F
$$

IAZ062-063-075>077-085>089-095>099-240900-
   SOUTHEAST IOWA

CITY           SKY/WX    TMP DP  RH WIND       PRES   REMARKS
BURLINGTON     CLOUDY    50  34  54 E8        29.88S
FAIRFIELD *    MOCLDY    50  34  53 SE18      29.81F
FORT MADISON * CLEAR     54  34  47 SE14      29.88S
KEOKUK *       CLEAR     54  34  47 SE15G23   29.85F
OSKALOOSA *      N/A     48  37  66 SE17      29.77F
CENTERVILLE *  PTCLDY    50  37  62 SE15      29.75F
OTTUMWA        CLOUDY    50  35  56 SE16      29.77F
WASHINGTON *   CLEAR     46  39  76 SE16      29.84F
$$

ABBREVIATIONS USED IN REMARKS
   TC - TEMPERATURES IN CELSIUS
  WCI - WIND CHILL INDEX
   HX - HEAT INDEX
  VSB - VISIBILITY
$$




USA.gov is the U.S. government's official web portal to all federal, state and local government web resources and services.